Overview Statistics Trail Chart Weather Telemetry Raw packets
 

This is the latest recevied weather packets stored in our database for station/object OH6GKW. If no packets are shown the sender has not sent any weather packets the latest 10 day(s).

<< 111 112 113 114 115 116 >>
Time Temp. Humidity Pressure Rain* Wind** Luminosity Snow
1787819332 17.78° C 63% 1026.5 hPa 0 mm - 535 W/m² -
1787819024 17.22° C 64% 1026.5 hPa 0 mm - 530 W/m² -
1787818716 16.67° C 63% 1026.5 hPa 0 mm - 510 W/m² -
1787818409 16.67° C 65% 1026.5 hPa 0 mm - 521 W/m² -
1787818124 16.67° C 66% 1026.5 hPa 0 mm - 575 W/m² -
1787817820 16.67° C 67% 1026.5 hPa 0 mm - 370 W/m² -
1787817509 16.67° C 65% 1026.6 hPa 0 mm - 294 W/m² -
1787817233 16.67° C 65% 1026.6 hPa 0 mm - 385 W/m² -
1787816928 16.67° C 66% 1026.6 hPa 0 mm - 433 W/m² -
1787816616 16.67° C 68% 1026.6 hPa 0 mm - 588 W/m² -
1787816308 16.67° C 69% 1026.6 hPa 0 mm - 510 W/m² -
1787816024 16.11° C 72% 1026.6 hPa 0 mm - 480 W/m² -
1787815713 15.56° C 70% 1026.7 hPa 0 mm - 463 W/m² -
1787815429 15.56° C 71% 1026.7 hPa 0 mm - 452 W/m² -
1787815120 15° C 74% 1026.7 hPa 0 mm - 438 W/m² -
1787814827 15° C 74% 1026.7 hPa 0 mm - 431 W/m² -
1787814538 14.44° C 76% 1026.7 hPa 0 mm - 417 W/m² -
1787814213 14.44° C 78% 1026.7 hPa 0 mm - 348 W/m² -
1787813922 13.89° C 80% 1026.7 hPa 0 mm - 398 W/m² -
1787813610 13.89° C 84% 1026.7 hPa 0 mm - 382 W/m² -
1787813323 13.33° C 87% 1026.7 hPa 0 mm - 382 W/m² -
1787813018 13.33° C 90% 1026.7 hPa 0 mm - 371 W/m² -
1787812709 12.78° C 94% 1026.7 hPa 0 mm - 362 W/m² -
1787812435 12.22° C 96% 1026.7 hPa 0 mm - 345 W/m² -
1787812124 11.67° C 98% 1026.8 hPa 0 mm - 322 W/m² -

* Rain since midnight (hover to see other rain measurements)
** Current wind speed in m/s (hover to see current wind gust speed)